Overview Statistics Trail Chart Weather Telemetry Raw packets
 

This is the latest recevied weather packets stored in our database for station/object KC7RJK-2. If no packets are shown the sender has not sent any weather packets the latest 10 day(s).

<< 5 6 7 8 9 10 11 >>
Time Temp. Humidity Pressure Rain* Wind** Luminosity Snow
1788503006 12.22° C 94% 1008.9 hPa 1.02 mm - - -
1788501205 12.22° C 94% 1009.1 hPa 1.52 mm - - -
1788498805 12.22° C 94% 1009.6 hPa 0.76 mm - - -
1788498204 12.22° C 94% 1009.6 hPa 0.25 mm - - -
1788497605 12.22° C 93% 1009.7 hPa 0 mm - - -
1788496404 12.22° C 93% 1009.6 hPa 0 mm - - -
1788495805 12.78° C 93% 1009.5 hPa 0.25 mm - - -
1788494605 12.78° C 93% 1009.7 hPa 0.25 mm - - -
1788494005 12.78° C 93% 1009.7 hPa 0.25 mm - - -
1788492804 12.78° C 93% 1009.6 hPa 0.25 mm - - -
1788492205 12.78° C 93% 1009.5 hPa 0 mm - - -
1788491605 12.78° C 93% 1009.4 hPa 0 mm - - -
1788491006 12.78° C 93% 1009.4 hPa 0 mm - - -
1788490406 12.78° C 93% 1009.4 hPa 0 mm - - -
1788489806 12.78° C 93% 1009.4 hPa 0 mm - - -
1788489205 12.78° C 92% 1009.3 hPa 0 mm - - -
1788488605 12.78° C 92% 1009.2 hPa 1.27 mm - - -
1788488006 12.78° C 92% 1009.3 hPa 2.03 mm - - -
1788487405 13.33° C 92% 1009.4 hPa 2.03 mm - - -
1788486804 13.33° C 92% 1009.5 hPa 2.54 mm - - -
1788486206 13.33° C 92% 1009.6 hPa 2.54 mm - - -
1788485605 13.33° C 91% 1009.6 hPa 2.54 mm - - -
1788485004 13.89° C 91% 1009.6 hPa 2.03 mm - - -
1788484406 13.89° C 90% 1009.7 hPa 1.02 mm - - -
1788483806 13.89° C 89% 1009.7 hPa 0.51 mm - - -

* Rain latest hour (hover to see other rain measurements)
** Current wind speed in m/s (hover to see current wind gust speed)